{"data":{"norad_id":53648,"epoch":"2026-05-25T02:09:08.063424Z","epoch_age_seconds":67172,"freshness":"FRESH","line1":"1 53648U 22105A   26145.08967666  .00010656  00000+0  74266-3 0  9997","line2":"2 53648  97.4524  25.0940 0001751  70.2351 289.9064 15.05591762204736","mean_motion":15.05591762,"eccentricity":0.0001751,"inclination_deg":97.4524,"raan_deg":25.094,"arg_perigee_deg":70.2351,"mean_anomaly_deg":289.9064,"bstar":0.00074266,"rev_number":20473,"period_min":95.643456370081,"perigee_km":548.47673661607,"apogee_km":550.90286156112,"semimajor_km":6927.8267990886,"source":"CELESTRAK","updated_at":"2026-05-25T13:38:17.483903Z"}}